Time,TemperatureF,DewpointF,PressureIn,WindDirection,WindDirectionDegrees,WindSpeedMPH,WindSpeedGustMPH,Humidity,HourlyPrecipIn,Conditions,Clouds,dailyrainin,SoftwareType,DateUTC
2014-03-11 00:03:00,60.0,58.0,-100.00,North,-999,-999.0,-999.0,92,0.00,,,0.00,,2014-03-11 05:03:00,
2014-03-11 00:22:00,59.0,59.0,-100.00,North,-999,-999.0,-999.0,100,-99.99,,,0.00,,2014-03-11 05:22:00,
2014-03-11 00:42:00,59.0,59.0,-100.00,North,-999,-999.0,-999.0,100,0.00,,,0.00,,2014-03-11 05:42:00,
2014-03-11 00:52:00,59.0,59.0,-100.00,North,-999,-999.0,-999.0,100,0.00,,,0.00,,2014-03-11 05:52:00,
2014-03-11 01:22:00,58.0,58.0,-100.00,North,-999,-999.0,-999.0,100,0.00,,,0.00,,2014-03-11 06:22:00,
2014-03-11 01:53:00,57.0,57.0,-100.00,North,-999,-999.0,-999.0,100,-99.99,,,0.00,,2014-03-11 06:53:00,
2014-03-11 02:22:00,57.0,57.0,-100.00,North,-999,-999.0,-999.0,100,0.00,,,0.00,,2014-03-11 07:22:00,
2014-03-11 02:52:00,56.0,56.0,-100.00,North,-999,-999.0,-999.0,100,0.00,,,0.00,,2014-03-11 07:52:00,
2014-03-11 03:22:00,56.0,56.0,-100.00,North,-999,-999.0,-999.0,100,0.00,,,0.00,,2014-03-11 08:22:00,
2014-03-11 03:52:00,56.0,56.0,-100.00,North,-999,-999.0,-999.0,100,0.00,,,0.00,,2014-03-11 08:52:00,
2014-03-11 04:22:00,55.0,55.0,-100.00,North,-999,-999.0,-999.0,100,0.00,,,0.00,,2014-03-11 09:22:00,
2014-03-11 04:53:00,56.0,56.0,-100.00,North,-999,-999.0,-999.0,100,0.00,,,0.00,,2014-03-11 09:53:00,
2014-03-11 05:22:00,56.0,56.0,-100.00,North,-999,-999.0,-999.0,100,0.00,,,0.00,,2014-03-11 10:22:00,
2014-03-11 05:53:00,56.0,56.0,-100.00,North,-999,-999.0,-999.0,100,0.00,,,0.00,,2014-03-11 10:53:00,
2014-03-11 06:22:00,56.0,56.0,-100.00,North,-999,-999.0,-999.0,100,0.00,,,0.00,,2014-03-11 11:22:00,
2014-03-11 06:52:00,56.0,56.0,-100.00,North,-999,-999.0,-999.0,100,0.00,,,0.00,,2014-03-11 11:52:00,
2014-03-11 07:22:00,56.0,56.0,-100.00,North,-999,-999.0,-999.0,100,0.00,,,0.00,,2014-03-11 12:22:00,
2014-03-11 07:53:00,56.0,56.0,-100.00,North,-999,-999.0,-999.0,100,0.00,,,0.00,,2014-03-11 12:53:00,
2014-03-11 08:22:00,56.0,56.0,-100.00,North,-999,-999.0,-999.0,100,0.00,,,0.00,,2014-03-11 13:22:00,
2014-03-11 08:53:00,56.0,56.0,-100.00,North,-999,-999.0,-999.0,100,0.00,,,0.00,,2014-03-11 13:53:00,
2014-03-11 09:22:00,56.0,56.0,-100.00,North,-999,-999.0,-999.0,100,0.00,,,0.00,,2014-03-11 14:22:00,
2014-03-11 09:52:00,57.0,57.0,-100.00,North,-999,-999.0,-999.0,100,0.00,,,0.00,,2014-03-11 14:52:00,
2014-03-11 10:53:00,61.0,57.0,-100.00,North,-999,-999.0,-999.0,86,0.00,,,0.00,,2014-03-11 15:53:00,
2014-03-11 11:24:00,63.0,56.0,-100.00,North,-999,-999.0,-999.0,78,0.00,,,0.00,,2014-03-11 16:24:00,
2014-03-11 11:53:00,65.0,55.0,-100.00,North,-999,-999.0,-999.0,68,0.00,,,0.00,,2014-03-11 16:53:00,
2014-03-11 12:22:00,68.0,54.0,-100.00,North,-999,-999.0,-999.0,60,0.00,,,0.00,,2014-03-11 17:22:00,
2014-03-11 12:52:00,71.0,54.0,-100.00,North,-999,-999.0,-999.0,54,0.00,,,0.00,,2014-03-11 17:52:00,
2014-03-11 13:22:00,74.0,53.0,-100.00,North,-999,-999.0,-999.0,47,0.00,,,0.00,,2014-03-11 18:22:00,
2014-03-11 13:52:00,76.0,50.0,-100.00,North,-999,-999.0,-999.0,40,0.00,,,0.00,,2014-03-11 18:52:00,
2014-03-11 14:21:00,80.0,46.0,-100.00,North,-999,-999.0,-999.0,31,0.00,,,0.00,,2014-03-11 19:21:00,
2014-03-11 14:52:00,82.0,45.0,-100.00,North,-999,-999.0,-999.0,28,0.00,,,0.00,,2014-03-11 19:52:00,
2014-03-11 15:22:00,83.0,45.0,-100.00,North,-999,-999.0,-999.0,26,0.00,,,0.00,,2014-03-11 20:22:00,
2014-03-11 15:52:00,84.0,42.0,-100.00,North,-999,-999.0,-999.0,23,0.00,,,0.00,,2014-03-11 20:52:00,
2014-03-11 16:22:00,86.0,44.0,-100.00,North,-999,-999.0,-999.0,23,0.00,,,0.00,,2014-03-11 21:22:00,
2014-03-11 16:53:00,86.0,41.0,-100.00,North,-999,-999.0,-999.0,20,0.00,,,0.00,,2014-03-11 21:53:00,
2014-03-11 17:23:00,86.0,39.0,-100.00,North,-999,-999.0,-999.0,19,0.00,,,0.00,,2014-03-11 22:23:00,
2014-03-11 17:53:00,87.0,39.0,-100.00,North,-999,-999.0,-999.0,18,0.00,,,0.00,,2014-03-11 22:53:00,
2014-03-11 18:23:00,88.0,36.0,-100.00,North,-999,-999.0,-999.0,16,0.00,,,0.00,,2014-03-11 23:23:00,
2014-03-11 18:52:00,87.0,35.0,-100.00,North,-999,-999.0,-999.0,16,0.00,,,0.00,,2014-03-11 23:52:00,
2014-03-11 19:22:00,86.0,36.0,-100.00,North,-999,-999.0,-999.0,17,0.00,,,0.00,,2014-03-12 00:22:00,
2014-03-11 19:52:00,84.0,38.0,-100.00,North,-999,-999.0,-999.0,20,0.00,,,0.00,,2014-03-12 00:52:00,
2014-03-11 20:22:00,80.0,39.0,-100.00,North,-999,-999.0,-999.0,23,0.00,,,0.00,,2014-03-12 01:22:00,
2014-03-11 20:53:00,77.0,39.0,-100.00,North,-999,-999.0,-999.0,25,0.00,,,0.00,,2014-03-12 01:53:00,
2014-03-11 21:22:00,73.0,40.0,-100.00,North,-999,-999.0,-999.0,30,0.00,,,0.00,,2014-03-12 02:22:00,
2014-03-11 21:52:00,68.0,42.0,-100.00,North,-999,-999.0,-999.0,39,0.00,,,0.00,,2014-03-12 02:52:00,
2014-03-11 22:21:00,68.0,42.0,-100.00,North,-999,-999.0,-999.0,40,0.00,,,0.00,,2014-03-12 03:21:00,
2014-03-11 22:53:00,67.0,45.0,-100.00,North,-999,-999.0,-999.0,46,0.00,,,0.00,,2014-03-12 03:53:00,
2014-03-11 23:03:00,67.0,45.0,-100.00,North,-999,-999.0,-999.0,46,0.00,,,0.00,,2014-03-12 04:03:00,
2014-03-11 23:23:00,67.0,47.0,-100.00,North,-999,-999.0,-999.0,48,0.00,,,-99.99,,2014-03-12 04:23:00,
2014-03-11 23:54:00,63.0,48.0,-100.00,North,-999,-999.0,-999.0,58,0.00,,,0.00,,2014-03-12 04:54:00,